GFSWCAN_2pvu_pres_183.txt.gz
Presure
419 414 409 434 488 441 425 410 420 408 426 407 371 361 350 336 327 321 312 308 297 291 293 291 302 333 388 387 388 388 379 382 373 362 339 328 327 331 327 339 317 317 330 344 331 331 312 318 287 288 300 337 324 299
414 427 425 429 434 417 412 404 409 452 400 388 362 351 337 327 323 319 312 312 314 314 322 342 347 353 340 354 357 368 367 363 353 361 339 323 324 325 340 343 318 303 301 298 301 311 301 307 297 311 304 298 291 307
466 455 456 435 431 420 407 417 433 409 395 364 345 338 327 323 320 316 316 317 328 331 337 340 337 339 363 368 353 354 354 353 351 351 352 336 335 326 316 323 320 327 328 318 310 296 305 317 285 282 280 283 301 297
472 473 452 424 424 431 418 423 419 394 365 348 337 331 322 318 318 319 320 322 328 327 323 330 334 328 341 347 354 361 351 347 346 343 338 348 341 328 317 315 322 315 318 323 284 291 286 282 283 283 289 289 294 292
453 444 438 433 420 425 439 426 394 358 344 337 324 322 321 315 316 317 320 321 317 323 324 330 344 343 341 343 341 347 351 356 356 346 345 343 344 348 350 342 342 310 304 327 289 290 290 288 289 284 282 291 275 302
380 399 399 389 399 391 371 359 345 338 329 323 315 312 313 317 315 316 314 311 316 315 327 321 319 311 307 311 311 312 311 319 324 338 354 363 366 362 353 352 340 328 326 292 324 314 303 298 308 298 279 299 285 289
392 390 385 376 367 363 344 338 329 326 324 320 317 316 315 315 315 312 310 314 316 314 311 310 305 306 306 308 313 318 322 317 306 307 308 317 312 320 328 374 347 340 333 327 327 323 321 321 319 342 285 278 272 286
383 379 370 356 352 347 340 334 328 325 324 322 320 316 313 315 311 311 311 311 315 318 315 303 305 309 314 313 315 316 317 325 381 387 395 391 408 423 450 342 320 339 345 348 334 320 318 317 301 295 279 280 266 269
288 367 365 360 349 341 339 335 331 327 323 320 320 315 310 308 310 312 314 319 324 328 325 322 317 315 305 309 320 339 378 385 392 399 386 403 394 405 408 419 400 355 353 345 356 338 322 315 304 277 274 278 288 271
292 279 375 355 343 334 336 333 326 323 321 318 316 313 317 318 319 322 320 319 321 320 322 322 324 333 367 382 389 400 381 354 350 343 335 332 334 332 355 392 385 371 366 344 347 335 326 311 283 282 275 276 286 270
278 296 276 347 365 362 359 355 344 336 334 329 326 325 329 328 323 326 326 326 329 329 340 359 371 383 418 458 361 341 326 321 319 314 316 312 314 320 321 330 342 363 368 344 349 339 290 309 276 281 280 280 271 275
277 276 295 279 272 377 370 362 359 356 354 348 350 357 375 378 383 383 387 391 385 365 362 382 378 358 333 323 323 322 311 315 315 315 305 304 305 314 316 320 335 339 349 336 335 334 295 310 284 274 272 277 280 279
268 270 268 294 283 271 279 346 343 339 338 336 346 351 355 362 370 366 362 359 357 355 370 330 318 310 315 317 315 312 310 301 301 295 300 298 300 302 304 308 321 330 336 354 319 284 282 311 284 284 280 269 278 260
283 274 266 268 267 289 277 265 266 347 344 339 332 329 331 329 332 330 332 335 339 319 311 311 307 311 308 306 300 298 298 297 295 298 294 292 296 300 302 301 310 325 324 330 333 282 300 301 304 286 283 284 271 267
314 289 277 269 270 267 267 289 275 265 264 334 327 314 322 320 323 322 315 309 303 312 309 310 301 298 301 296 296 298 290 292 296 296 286 291 290 293 293 297 305 308 313 314 320 287 308 310 303 280 286 289 278 263
311 317 299 281 269 272 271 264 280 284 273 265 263 315 316 309 312 304 300 291 288 295 304 297 290 297 286 291 292 290 283 289 291 285 282 283 287 290 287 287 290 295 298 300 304 303 302 312 314 268 264 264 267 268
329 316 317 310 288 274 268 268 268 261 293 280 268 266 259 268 311 311 308 305 303 292 287 289 285 280 292 292 284 289 290 287 288 290 283 286 292 292 295 297 291 295 291 288 294 300 302 308 306 304 307 307 310 312
340 336 329 307 318 306 279 275 263 264 264 262 288 279 269 262 256 256 303 309 307 301 303 302 303 282 293 290 294 293 295 293 292 292 292 292 283 283 286 296 297 297 300 302 301 300 299 302 304 305 306 305 303 300
352 345 340 334 322 311 314 293 276 270 269 260 263 259 278 283 270 263 258 254 253 294 320 316 304 307 305 307 304 309 310 312 305 304 306 307 306 308 311 318 324 330 327 327 315 326 330 339 337 337 335 335 334 329
401 317 355 329 329 326 315 313 310 287 274 269 263 263 263 260 274 292 274 265 259 255 252 250 252 275 307 327 339 323 317 327 334 337 342 331 313 308 302 291 289 288 287 285 284 286 290 301 329 392 497 485 461 448
442 328 423 371 356 330 327 325 317 319 302 286 271 267 260 262 261 257 261 300 283 270 263 259 255 254 253 249 246 245 245 247 247 249 252 266 264 263 262 261 260 258 257 255 256 255 254 250 249 248 250 249 248 247
370 439 428 420 414 399 378 330 343 324 317 314 301 283 276 265 261 255 259 256 257 257 290 290 282 270 262 257 253 250 250 251 250 250 249 249 249 249 249 249 248 248 248 249 249 250 250 252 253 255 256 255 254 253
343 439 427 426 414 405 384 383 339 320 322 319 321 311 300 289 272 264 261 260 260 257 255 254 263 292 312 293 279 273 268 264 259 256 252 250 249 249 248 247 247 249 249 249 249 248 249 252 258 266 270 272 275 280
333 360 424 152 207 414 413 400 390 380 347 313 313 310 324 317 303 285 271 266 258 263 261 258 256 253 260 263 274 297 319 321 307 295 290 286 281 274 272 268 267 264 264 264 265 268 270 273 277 280 286 290 295 303
137 325 430 408 156 392 391 391 393 392 389 383 358 336 315 311 328 316 295 282 273 269 257 261 260 260 257 255 259 258 252 257 267 272 284 289 380 366 344 326 314 308 301 297 290 289 290 295 303 289 262 260 255 251
287 231 323 415 403 316 389 388 385 382 383 384 385 382 361 341 321 364 331 312 297 280 276 276 271 257 260 258 259 257 254 252 255 259 257 259 267 271 277 286 290 364 360 394 349 321 263 259 252 252 253 253 251 249
338 335 331 310 413 410 389 382 327 373 365 362 359 363 370 371 367 323 289 284 299 312 301 287 279 272 260 259 264 256 257 257 256 254 252 251 256 257 258 258 259 259 257 254 252 250 251 252 253 251 250 248 250 251
337 340 330 316 418 407 400 365 140 514 496 486 465 428 367 353 367 377 372 307 294 291 289 307 308 293 281 267 255 253 260 259 256 257 260 259 256 253 251 252 251 249 250 251 250 251 253 252 249 246 252 256 251 246
336 338 327 336 315 410 408 401 510 500 488 503 485 478 468 451 415 366 358 367 368 373 342 316 305 316 306 295 283 270 269 265 263 263 259 258 257 257 259 255 255 255 254 253 253 254 252 250 248 249 249 250 252 250
337 337 325 333 334 413 409 402 485 474 457 471 469 475 469 454 441 435 422 384 354 365 369 374 342 332 317 314 308 302 283 276 270 266 261 260 253 254 252 256 256 253 253 253 251 249 248 242 243 243 243 247 246 245
339 333 327 331 341 416 407 403 479 456 442 447 466 456 454 457 459 442 435 428 429 405 348 364 369 371 336 335 319 313 307 301 287 280 279 271 272 263 259 261 258 252 250 250 251 250 249 248 247 247 248 246 243 245
339 328 323 326 340 409 409 399 474 454 443 468 462 451 445 437 433 441 474 445 435 435 427 402 345 359 366 371 336 329 318 313 310 301 294 290 285 280 277 272 266 263 261 260 256 252 251 250 249 246 245 246 246 244
336 327 314 322 347 404 399 398 469 454 435 423 460 450 440 430 423 429 425 440 459 452 446 440 424 384 353 362 367 363 341 324 314 315 312 306 300 295 293 290 287 285 280 275 271 269 266 261 257 259 259 258 258 259

GFSWCAN_2pvu_pres_186.txt.gz
Presure
339 490 481 462 431 428 473 486 419 414 398 399 406 415 402 379 366 352 343 337 337 325 317 313 308 304 307 288 277 273 277 287 368 389 400 352 361 350 326 359 359 361 325 308 308 297 290 286 295 281 274 270 291 306
430 503 467 455 432 432 449 435 414 395 401 409 436 389 378 364 349 332 333 327 319 318 315 312 307 305 305 302 299 305 353 373 386 373 371 382 349 331 336 327 342 345 351 356 316 305 301 291 278 279 280 288 280 280
435 474 467 449 430 428 416 408 402 411 433 416 376 368 361 346 336 325 322 315 315 312 314 313 317 317 329 334 342 339 352 362 367 360 368 362 362 340 325 342 332 335 329 335 335 336 332 287 281 285 283 279 284 290
406 463 446 437 433 427 413 410 413 437 389 378 362 355 343 335 323 315 314 313 313 308 312 320 327 328 325 327 332 360 362 364 351 350 352 345 347 352 326 318 342 321 310 312 309 308 310 318 304 297 288 288 305 312
408 419 459 441 433 424 425 430 401 385 379 356 344 337 328 322 317 311 309 311 314 316 318 319 318 323 332 328 340 345 336 345 348 359 352 348 351 363 349 333 324 325 320 115 170 311 298 293 294 296 290 296 314 309
385 379 374 404 448 419 390 378 369 360 345 336 330 324 323 316 310 308 308 310 312 317 312 314 318 342 345 340 338 341 342 341 340 342 348 352 360 367 363 370 359 341 332 333 313 329 321 318 320 307 295 305 295 294
370 374 366 357 360 355 355 348 342 333 326 324 321 317 315 317 316 311 310 308 310 309 310 313 317 315 314 312 312 312 310 310 308 308 309 312 315 326 328 330 345 349 346 343 343 323 315 314 322 306 297 289 283 284
299 353 356 349 352 344 340 337 333 328 324 320 315 313 314 313 311 312 310 310 309 309 305 310 319 323 321 317 316 320 324 320 318 322 372 403 416 410 423 401 372 327 363 382 351 348 347 300 318 302 292 291 287 286
280 297 298 358 343 340 334 329 334 333 327 322 318 313 311 315 314 310 312 310 310 312 316 318 324 319 315 318 320 324 331 368 422 359 338 339 338 344 362 398 427 433 445 332 384 361 342 334 296 311 284 286 283 282
281 278 300 279 360 354 344 338 333 327 323 319 319 316 318 314 317 319 318 317 323 327 325 323 324 323 331 392 420 434 400 344 320 331 322 316 329 328 339 344 351 395 449 367 319 358 365 351 338 332 335 308 313 305
284 279 276 298 284 323 372 363 355 348 342 340 334 334 326 326 327 326 323 324 323 324 327 333 363 379 392 376 343 325 324 313 319 318 312 323 329 322 318 325 336 340 366 362 350 352 357 359 347 320 312 309 303 292
298 287 280 276 275 296 275 311 362 363 362 367 387 380 386 386 379 370 361 351 371 383 383 370 369 326 331 326 319 311 315 312 296 310 305 302 302 307 316 316 326 336 350 352 349 341 343 338 329 318 304 294 294 284
308 301 291 281 277 273 292 284 271 333 348 343 343 362 363 363 376 382 368 365 365 368 352 307 306 319 319 310 303 297 310 299 305 305 296 303 304 300 302 308 325 325 339 344 343 334 328 317 313 307 297 299 296 274
328 313 302 289 282 275 275 268 288 274 262 333 338 333 338 336 347 350 355 354 344 325 300 308 315 313 300 302 285 297 300 295 298 299 293 296 293 299 300 308 325 323 317 335 300 330 328 315 299 286 309 291 296 264
353 335 322 305 298 284 273 274 269 278 284 270 264 322 336 329 306 305 309 318 317 312 312 304 303 299 298 294 294 299 292 287 290 296 296 292 295 296 295 300 313 313 330 333 305 303 312 309 307 296 272 280 276 280
368 360 346 330 311 304 293 281 271 270 267 291 280 269 262 299 317 311 306 303 305 299 289 295 298 295 293 294 288 285 282 294 291 287 292 283 287 285 287 289 295 306 300 296 305 305 299 300 314 306 298 300 306 296
362 372 363 355 341 322 305 300 279 278 269 268 267 287 277 267 261 269 315 307 311 289 292 285 290 291 296 281 291 294 290 286 294 290 289 288 291 296 294 287 287 287 292 300 301 298 288 295 297 301 298 301 316 321
336 379 384 375 357 344 333 318 302 293 276 270 266 263 287 285 274 266 258 260 303 315 302 294 289 301 299 289 282 289 294 281 290 293 291 293 294 289 292 295 292 283 285 293 287 287 291 291 293 306 305 313 316 316
331 341 383 431 394 369 347 338 325 313 302 286 272 269 261 264 271 284 271 263 259 255 266 312 308 306 306 305 301 296 301 303 308 300 302 305 305 301 300 305 305 306 315 310 310 308 308 314 310 313 319 325 330 332
152 327 152 442 422 416 386 361 342 330 320 310 296 278 269 266 262 261 272 281 272 264 259 253 253 256 278 311 311 308 322 320 316 325 322 312 314 327 332 331 322 307 295 291 291 288 285 285 283 283 289 297 385 513
337 334 333 337 430 424 411 408 393 361 337 322 317 306 293 275 269 260 262 262 285 286 277 270 259 257 250 253 251 248 246 247 247 265 274 275 277 275 271 267 264 263 261 259 257 258 259 258 255 252 256 255 252 251
339 337 338 329 314 151 424 414 402 400 390 381 325 328 316 306 290 275 264 259 261 260 259 277 290 280 267 259 254 252 251 253 253 253 252 250 249 249 249 248 247 247 247 246 247 247 249 251 251 252 252 253 253 252
333 339 325 331 322 142 385 407 403 403 403 390 400 333 357 322 316 313 293 272 265 264 263 261 258 269 296 309 284 273 267 263 261 256 255 253 250 249 249 249 250 249 249 249 249 249 249 250 250 252 255 258 262 267
329 331 335 331 318 336 326 412 401 391 382 389 394 392 383 317 310 315 325 310 282 272 271 263 259 255 259 263 270 281 319 310 293 289 288 286 280 273 266 267 266 263 261 260 259 260 261 263 267 272 275 279 285 289
285 327 339 332 315 321 326 405 139 400 390 384 382 381 378 380 381 336 313 310 320 306 286 278 274 262 259 257 258 256 259 261 268 265 276 283 319 333 331 333 339 334 305 298 293 290 288 289 290 292 297 299 304 290
276 328 339 337 321 315 314 421 413 399 389 384 379 375 370 370 377 380 382 352 320 311 321 309 290 282 274 255 260 260 256 254 258 255 258 259 257 259 267 271 278 293 302 378 398 383 376 370 362 324 268 258 252 252
301 304 338 334 325 305 316 395 412 404 395 390 423 460 442 383 376 372 371 377 374 365 317 320 323 306 294 282 271 266 262 260 257 258 256 253 255 257 255 259 256 256 260 264 262 265 260 253 252 252 253 253 252 250
310 280 337 333 332 311 306 360 426 410 399 505 491 483 481 496 466 437 399 378 362 368 365 342 318 291 326 311 300 276 266 269 265 262 254 257 257 257 255 252 255 252 252 253 253 254 251 249 250 252 254 248 244 245
308 283 334 334 332 322 301 326 399 414 405 496 469 450 443 457 456 484 466 443 418 383 350 359 365 327 305 292 291 311 306 282 271 266 259 258 257 253 254 254 256 253 251 251 251 249 250 250 250 251 251 249 247 246
305 296 323 337 335 324 304 320 380 413 409 492 461 442 453 464 445 461 461 442 432 428 426 396 349 350 330 332 300 290 289 287 302 299 275 263 261 259 259 255 254 252 254 254 252 252 253 252 249 251 251 249 246 244
302 306 304 337 337 328 310 320 394 412 408 488 460 440 432 458 447 446 439 432 433 429 428 426 424 415 371 345 360 367 364 323 311 300 308 301 294 276 269 264 255 254 243 250 252 257 254 251 250 249 244 240 242 243
290 306 292 335 336 331 317 316 356 417 405 430 463 439 424 460 448 444 426 427 428 425 419 420 420 419 421 425 376 339 354 366 366 329 319 309 309 303 299 292 274 265 265 263 259 255 250 248 248 248 248 248 248 243
283 308 294 333 338 330 317 315 348 395 408 403 457 454 432 415 449 442 439 431 424 417 418 431 431 433 435 433 425 417 379 349 361 366 363 335 324 318 309 304 301 297 292 287 275 272 266 261 258 258 257 256 252 250

GFSWCAN_2pvu_pres_189.txt.gz
Presure
309 305 325 499 477 458 438 436 436 429 437 422 404 382 404 397 390 378 374 363 353 353 355 349 343 338 332 325 320 311 307 304 303 300 276 271 272 276 273 277 273 275 295 388 311 292 287 279 276 270 270 280 281 276
297 313 478 459 450 441 449 453 463 420 411 403 385 388 398 379 376 370 363 338 341 341 335 327 323 318 317 315 312 307 305 303 303 305 303 265 261 262 272 352 379 350 311 287 358 305 283 280 284 281 280 284 289 290
313 428 458 453 450 430 425 424 407 403 396 399 398 390 391 376 350 339 329 337 331 323 316 316 310 305 307 306 306 306 309 308 310 319 329 351 354 364 359 344 351 351 350 337 335 333 322 290 280 279 271 269 271 276
310 403 475 445 438 430 419 419 414 425 421 399 387 374 370 349 328 337 339 321 318 314 312 311 306 306 306 309 313 316 327 339 342 342 354 366 363 373 380 346 356 333 343 339 350 322 317 303 309 299 292 290 285 285
312 360 377 420 429 426 414 394 395 382 368 373 371 360 344 335 327 318 315 313 310 308 307 306 309 315 318 321 325 327 331 338 345 349 352 363 358 361 361 359 348 334 333 337 249 339 336 313 300 289 288 287 292 298
298 295 370 357 369 379 378 376 377 367 364 352 344 335 334 331 322 315 311 311 307 306 310 312 314 318 317 321 329 337 342 345 349 343 336 336 347 359 372 367 350 331 328 335 371 338 329 325 333 323 299 279 276 276
285 304 289 357 343 347 349 348 343 340 338 332 328 325 323 321 315 312 308 309 307 308 312 315 315 314 318 321 315 310 307 305 299 299 302 304 312 320 320 324 333 367 356 349 347 345 330 319 309 316 311 309 302 301
299 284 303 287 358 345 339 336 329 327 326 324 319 313 310 308 310 309 307 310 309 308 312 313 310 315 319 327 324 324 320 317 318 322 318 346 397 376 390 407 373 330 332 356 372 364 351 336 303 307 297 294 296 296
307 296 281 287 286 344 354 346 337 330 327 325 322 318 318 319 314 314 316 313 311 309 311 314 317 315 324 328 329 337 382 364 408 351 332 331 323 330 342 334 342 359 403 433 423 342 362 368 345 328 333 309 291 309
322 310 301 286 276 293 277 371 361 353 343 338 329 324 325 324 322 324 327 324 323 322 323 323 322 320 344 399 432 393 365 321 315 319 330 319 323 329 328 328 327 335 356 408 441 452 317 360 352 346 311 315 299 297
333 325 316 302 291 278 295 281 345 372 370 365 359 350 345 339 335 334 328 327 325 325 328 332 348 398 351 333 321 314 307 307 305 320 309 315 316 322 321 316 323 333 349 382 414 428 331 309 369 342 324 336 324 287
354 335 325 317 307 293 284 271 294 275 311 371 373 369 380 398 406 384 352 344 343 340 349 393 340 331 318 315 301 306 301 306 286 311 308 305 304 303 307 313 323 340 344 366 357 347 339 344 346 346 337 325 322 309
371 357 339 323 317 309 297 285 273 282 286 272 350 342 362 358 366 376 410 399 395 383 355 332 320 321 316 304 302 301 306 288 309 306 296 301 302 304 305 311 330 327 343 355 364 360 348 345 353 341 337 326 311 296
326 368 365 348 327 315 308 302 285 274 269 291 276 267 323 326 367 361 363 360 353 338 324 322 312 308 308 285 303 294 293 301 296 287 298 299 302 296 299 312 318 319 329 336 324 334 340 343 330 324 319 310 301 304
259 327 373 364 359 339 317 310 303 288 280 269 275 285 269 303 325 325 323 315 315 328 312 309 307 306 298 297 297 298 289 288 292 298 293 293 291 293 293 297 317 336 324 306 309 321 321 307 313 308 300 293 299 296
343 339 340 353 378 363 352 328 313 308 298 280 269 262 286 278 265 319 315 312 310 295 303 304 301 297 297 298 287 289 283 298 285 288 299 295 288 292 288 286 293 309 297 297 311 309 306 302 302 303 296 298 288 276
344 347 176 323 429 412 383 357 339 317 311 301 283 273 266 263 285 273 264 285 313 297 297 296 301 299 296 293 297 294 273 273 278 291 284 289 299 297 291 292 296 297 295 303 301 300 302 335 316 307 315 313 307 309
332 342 348 340 328 298 434 400 363 340 323 312 303 292 277 268 266 261 282 270 261 262 309 305 303 299 295 297 283 287 287 291 289 288 288 288 283 274 297 284 276 274 281 288 286 286 292 308 300 300 302 304 315 310
300 343 349 340 330 329 441 426 433 390 340 330 317 305 301 283 272 267 264 267 282 271 263 257 291 300 307 306 305 301 297 297 287 296 298 296 298 297 300 298 301 297 302 302 301 300 307 308 309 303 299 298 298 303
309 297 345 346 337 316 147 391 427 421 419 362 339 328 312 304 291 278 269 263 266 285 280 274 260 254 254 274 297 305 310 320 326 323 314 307 312 311 322 328 324 317 333 333 316 301 291 286 283 279 277 277 276 276
313 310 295 166 342 328 309 327 426 429 408 411 407 353 331 321 305 299 286 275 266 264 267 262 289 277 261 257 254 252 250 249 270 280 283 283 288 288 288 285 284 279 272 268 265 261 260 262 260 256 254 251 248 246
257 318 301 331 343 339 322 309 388 425 423 404 408 403 395 363 337 321 305 299 283 272 269 266 262 260 287 286 265 262 258 254 252 254 254 253 253 253 253 250 250 247 246 246 245 246 247 248 249 251 253 255 255 253
255 303 308 299 343 344 335 307 310 389 425 411 402 395 393 400 385 361 335 340 314 298 280 272 269 266 263 261 280 294 279 273 268 265 261 257 250 250 249 249 249 249 249 249 250 250 250 250 249 248 248 249 253 258
256 272 300 303 298 337 341 328 309 322 371 417 406 396 390 382 386 391 378 353 340 349 316 292 281 279 270 261 261 259 270 299 300 293 291 289 284 275 269 262 260 259 259 259 259 258 257 257 259 259 259 261 267 271
253 262 321 299 295 336 337 331 317 312 356 420 412 404 400 394 383 381 381 381 381 366 323 314 316 297 285 276 262 261 262 262 262 265 270 280 286 299 303 311 323 328 323 309 308 305 296 282 278 278 282 285 288 294
244 266 309 320 298 298 336 338 325 306 342 411 412 406 400 395 394 396 386 372 371 373 374 375 334 309 323 310 286 271 266 264 263 261 259 265 263 262 262 267 273 274 273 282 294 303 318 371 391 387 381 336 333 321
250 268 279 320 296 306 330 339 332 310 323 363 420 415 428 504 496 493 477 452 400 374 363 368 374 373 350 311 322 308 281 267 264 263 264 260 258 257 256 258 260 260 259 261 264 269 272 276 284 285 288 262 254 255
254 270 280 317 304 293 321 339 333 318 312 358 427 415 502 471 453 451 453 488 492 446 409 376 355 359 369 370 358 314 323 307 276 274 270 266 264 260 259 254 252 253 253 259 259 258 259 260 261 255 252 252 254 257
250 269 280 319 306 293 320 337 338 327 306 356 377 416 468 470 447 444 439 435 456 476 469 438 412 372 349 355 366 369 368 316 336 298 280 279 272 263 265 260 258 254 255 254 254 253 253 253 250 249 247 247 248 252
250 270 278 326 301 296 295 334 336 326 299 340 369 415 431 462 444 435 458 457 477 464 453 447 441 432 407 368 351 357 368 368 336 296 326 300 288 280 269 266 266 259 256 253 253 254 253 252 252 251 252 252 251 250
251 267 288 326 280 301 295 330 336 322 300 318 365 412 414 472 453 429 424 455 450 460 457 443 438 432 430 421 417 388 354 354 365 367 317 338 330 305 298 295 279 265 262 252 256 258 255 250 252 249 247 250 252 252
221 275 290 323 278 292 297 325 334 327 305 309 361 371 413 435 455 435 420 444 449 435 433 435 443 441 436 439 436 437 433 422 364 348 354 363 313 297 289 286 285 294 304 266 265 260 250 259 256 252 254 255 253 245
134 286 300 286 309 277 303 315 332 331 309 305 355 366 409 412 466 444 429 409 426 438 433 425 415 419 422 414 427 435 436 425 419 414 406 360 358 362 373 320 308 305 306 300 309 301 276 266 263 259 254 254 253 253

GFSWCAN_2pvu_pres_192.txt.gz
Presure
313 302 299 434 471 454 460 482 456 421 411 400 408 425 418 403 408 414 403 382 381 381 366 353 360 352 353 353 351 355 351 349 347 342 337 339 330 327 319 313 307 293 279 274 276 280 277 286 299 318 289 304 295 281
300 290 308 474 454 438 435 436 455 438 432 427 410 387 407 405 392 391 367 367 358 358 353 347 343 340 337 334 333 332 332 326 323 320 318 316 309 308 304 301 300 284 277 274 273 277 275 267 269 363 293 280 280 281
307 309 388 475 454 436 421 414 405 398 401 390 390 390 401 384 378 358 354 350 349 344 333 329 326 326 321 318 318 314 312 310 309 310 310 308 305 306 306 305 306 287 270 257 260 263 267 274 293 278 319 287 279 277
311 305 300 384 421 415 406 422 432 442 429 401 394 379 372 354 347 347 335 342 339 328 322 317 316 313 311 308 307 307 307 307 308 308 310 313 316 318 320 338 346 386 335 267 307 312 322 315 309 283 313 300 280 275
316 293 310 325 366 379 385 383 382 384 387 382 367 351 345 330 342 338 324 321 319 316 313 308 310 307 306 306 306 307 311 318 321 326 329 331 337 358 374 378 349 348 354 350 314 218 318 308 313 308 304 297 307 298
316 304 287 302 322 355 347 350 362 358 355 352 349 342 342 338 324 322 314 313 311 308 307 307 306 306 309 314 316 318 321 323 324 344 349 347 347 358 367 375 360 349 344 349 348 342 323 309 163 318 314 310 305 297
323 312 301 286 297 325 351 341 337 333 329 334 332 329 326 321 321 317 311 310 309 309 308 309 311 313 312 311 313 319 320 316 316 313 312 314 316 317 320 327 341 368 396 387 367 350 330 320 304 300 298 294 175 275
340 322 310 299 286 298 284 354 345 337 327 324 320 316 312 314 311 308 308 309 308 307 308 309 303 309 309 311 318 332 332 327 316 308 307 306 316 346 373 357 362 343 339 333 356 378 354 349 328 308 293 289 282 282
361 344 325 313 299 284 298 285 328 351 342 336 327 324 321 320 317 311 314 314 314 312 309 308 308 313 322 333 326 397 410 421 434 318 336 330 318 319 321 324 328 331 344 360 380 331 377 352 335 329 315 304 297 287
376 362 351 333 318 305 285 284 289 277 369 367 362 356 339 331 324 316 307 315 311 315 316 320 322 322 327 374 343 336 333 332 332 330 320 315 315 315 316 315 317 320 324 351 365 391 451 334 357 343 336 317 325 318
329 338 358 353 340 325 309 295 277 295 281 336 380 375 372 366 358 352 344 334 329 325 324 321 325 369 336 329 318 315 314 318 304 323 305 314 313 312 314 317 322 333 343 352 375 432 447 454 337 361 338 332 306 298
345 329 323 361 352 340 332 317 301 284 276 289 271 327 357 377 413 410 376 352 348 342 335 344 357 324 319 312 303 305 302 304 299 307 302 304 306 302 307 313 326 324 347 355 363 368 455 457 315 335 347 336 328 327
357 347 333 321 363 354 341 333 322 304 290 274 286 282 271 360 372 379 408 400 383 375 374 340 318 319 317 306 304 296 294 289 305 296 297 303 301 307 307 313 321 331 352 352 352 335 328 321 313 325 363 332 322 326
354 351 340 330 312 376 361 349 336 324 307 290 277 270 291 275 353 377 372 367 365 350 332 323 320 318 306 300 302 297 291 302 296 286 299 297 293 297 297 309 329 324 332 335 337 343 349 348 325 354 350 346 328 313
312 305 243 335 328 408 400 369 356 341 326 312 296 281 273 278 280 274 327 335 332 328 317 319 316 318 297 303 304 296 298 295 292 286 274 297 291 286 285 289 315 311 303 320 319 330 337 338 332 334 335 325 319 314
260 307 324 349 333 330 318 426 383 359 344 331 314 299 286 275 270 286 275 291 303 305 318 314 314 308 304 298 299 291 285 297 287 288 281 292 287 290 286 293 292 292 310 298 306 317 308 308 319 315 315 308 307 300
247 265 311 321 352 331 310 343 451 406 363 351 335 316 306 295 279 273 273 277 268 314 298 310 304 293 299 301 301 293 283 282 279 287 291 295 293 287 285 294 293 287 283 293 299 292 315 295 316 311 310 310 313 318
241 256 270 316 324 350 297 309 346 442 439 382 358 339 322 310 300 287 274 270 285 273 266 298 305 300 302 293 293 288 287 283 287 285 284 284 280 273 293 286 282 293 283 286 285 283 280 285 300 294 290 289 292 299
236 242 263 305 313 336 143 330 311 331 434 430 417 363 345 330 320 308 296 279 270 269 284 273 263 259 303 307 307 305 300 293 292 285 286 295 295 297 296 293 294 285 288 295 299 299 303 302 299 308 307 307 303 300
231 239 243 264 323 309 346 345 336 313 343 424 427 423 390 356 338 326 317 302 291 275 269 265 282 270 263 258 270 306 307 307 305 301 309 306 312 302 308 311 324 326 321 325 335 331 328 324 315 297 290 285 281 277
221 231 244 256 272 320 308 351 343 326 307 344 431 423 410 416 375 345 331 325 314 299 284 278 274 260 285 272 261 260 257 256 294 305 304 308 308 313 324 312 314 305 301 299 290 285 280 275 271 268 266 265 263 261
227 230 248 257 258 325 311 302 348 339 317 317 434 422 415 406 405 404 370 345 334 326 313 296 285 278 267 261 283 277 267 262 260 256 255 255 272 273 276 278 277 273 267 261 259 253 249 247 244 243 245 249 252 253
228 229 246 253 252 286 312 301 332 347 335 314 333 363 420 413 404 397 393 402 378 357 340 325 314 301 284 273 265 262 279 283 275 269 263 259 256 254 251 250 250 250 249 250 251 251 251 253 253 251 249 250 248 249
232 230 244 251 264 258 319 282 305 348 341 322 303 358 420 408 394 396 396 385 382 392 374 363 351 327 320 295 288 273 268 264 268 289 287 283 277 266 257 254 253 253 253 253 254 255 256 256 257 256 254 256 258 257
233 233 245 247 256 258 323 300 282 307 343 332 303 332 365 419 405 403 401 388 378 375 376 380 387 371 358 345 313 303 287 267 266 266 263 265 299 307 308 301 286 278 274 273 275 276 275 272 271 270 270 271 272 274
231 225 244 240 249 264 296 321 277 295 335 340 316 302 371 406 422 439 517 494 437 400 383 371 366 367 375 387 387 339 324 307 276 267 266 265 264 264 273 273 282 286 291 295 294 296 321 303 309 349 358 381 382 329
240 233 239 248 253 267 277 309 312 276 305 340 336 307 324 380 434 437 480 469 471 477 477 406 378 367 364 364 366 374 373 318 338 297 275 273 268 265 262 266 262 261 265 264 266 272 273 276 279 281 286 295 308 404
248 240 210 245 254 267 272 310 280 277 306 322 341 323 308 377 413 434 482 459 445 441 447 460 470 420 385 373 364 361 361 371 373 318 329 286 277 272 266 264 259 259 258 262 264 262 260 261 263 265 267 267 266 261
253 247 204 248 256 268 272 301 295 268 299 317 332 336 316 361 380 427 479 461 445 437 464 434 435 477 460 437 402 379 366 359 359 371 377 320 311 282 279 267 265 266 259 256 255 255 258 259 260 260 261 263 257 253
253 212 207 254 253 273 284 296 300 269 299 317 322 336 321 322 366 409 471 459 446 434 464 456 479 475 460 455 440 425 406 385 367 357 361 374 373 314 308 291 281 271 266 265 264 260 260 259 256 255 254 253 252 250
254 227 255 260 254 286 290 295 298 268 301 309 323 332 332 316 353 376 429 449 452 434 423 450 448 438 460 446 435 426 422 415 409 391 373 360 361 369 361 315 313 296 285 277 269 265 263 262 262 261 259 259 258 254
253 261 251 259 260 289 294 294 288 268 299 304 315 329 336 320 338 372 385 445 462 439 423 419 450 442 429 442 442 436 422 419 415 410 409 408 390 362 355 369 363 316 316 306 293 278 273 265 262 259 259 258 260 259
262 267 267 257 267 283 300 291 276 260 292 303 306 321 335 326 325 364 380 413 469 448 429 411 409 434 436 432 426 423 425 422 423 420 419 414 415 422 426 384 363 371 340 308 328 313 304 295 281 268 263 263 263 262

GFSWCAN_2pvu_pres_195.txt.gz
Presure
325 311 311 299 319 462 450 451 467 439 427 416 410 406 404 406 409 386 401 387 388 408 403 396 375 364 350 343 358 354 359 367 359 367 366 359 355 356 363 371 382 329 287 272 274 283 292 284 289 261 275 283 266 309
322 316 302 314 432 444 446 428 432 427 406 397 423 431 389 392 365 363 353 364 392 385 378 384 360 359 359 352 347 343 339 339 340 336 334 334 336 332 334 341 353 352 347 309 292 273 274 270 278 305 286 276 281 271
327 320 299 314 385 409 416 439 423 414 400 401 386 382 409 389 395 416 369 363 359 365 365 359 343 341 337 331 329 327 323 325 324 323 322 318 317 316 316 314 316 319 320 316 307 307 305 301 303 299 290 274 265 263
335 323 307 304 318 370 372 402 425 420 413 401 401 397 394 382 377 362 357 345 352 343 328 324 327 324 323 322 315 312 311 313 312 309 308 308 308 309 306 303 304 305 305 304 299 296 298 294 295 295 288 256 262 260
347 330 319 296 305 310 356 355 367 379 386 378 365 357 357 350 342 344 345 328 331 330 318 317 318 313 310 312 310 308 307 307 307 305 305 306 310 310 310 312 310 313 313 310 299 299 260 92 297 290 262 260 240 271
358 345 328 312 294 300 295 352 342 340 342 341 338 355 350 344 326 324 322 320 312 311 312 308 310 309 306 304 307 308 309 312 318 325 328 327 331 338 346 357 345 359 376 381 379 391 310 310 309 305 290 270 310 291
372 360 345 329 312 294 297 290 335 342 336 330 326 329 326 317 320 320 320 321 314 310 308 308 308 307 309 314 316 317 317 317 321 323 345 341 334 330 326 326 332 345 344 360 385 351 341 316 315 307 306 305 302 292
360 379 363 351 333 312 295 283 291 283 344 339 329 324 320 318 316 314 312 313 312 310 307 308 308 304 309 313 313 314 315 322 330 332 315 309 312 312 333 324 344 329 333 343 336 376 373 326 314 308 303 144 295 294
352 339 324 369 355 341 318 298 284 288 281 357 347 341 335 330 321 318 318 312 310 311 308 309 309 303 310 312 325 331 380 379 389 346 320 315 320 315 324 323 326 331 335 334 348 369 342 371 308 317 309 294 293 293
362 351 336 344 372 361 347 328 308 286 296 281 277 373 362 355 341 336 330 324 318 312 307 304 308 313 321 349 346 338 343 353 363 331 308 316 312 313 312 310 323 320 328 326 330 334 357 378 359 354 309 285 297 293
306 351 343 338 339 364 365 355 338 312 294 278 286 281 328 368 384 392 366 343 340 333 326 322 324 322 348 323 328 323 317 307 310 307 309 297 299 311 313 314 319 325 329 339 350 359 370 381 385 389 370 299 302 284
135 311 326 344 334 320 372 366 357 346 326 304 286 283 285 277 369 397 419 376 351 343 331 324 327 341 323 315 312 301 301 305 307 300 294 292 298 300 305 309 318 323 339 355 354 349 354 446 445 420 405 339 306 290
256 264 289 312 345 331 322 383 366 359 349 328 310 295 280 283 280 378 402 395 381 366 358 346 333 326 314 313 308 299 290 304 294 292 293 291 287 295 303 317 328 323 330 337 341 338 338 406 450 420 363 362 334 303
243 257 265 287 312 347 331 316 356 377 360 350 331 309 298 285 276 289 287 380 399 406 370 333 319 319 311 307 299 294 286 297 290 279 288 294 283 290 288 309 311 295 303 326 334 346 331 327 392 405 316 351 340 337
231 244 256 264 309 309 347 334 317 410 385 365 350 330 315 303 290 278 283 278 349 357 341 330 328 322 300 303 307 295 295 296 279 288 283 284 280 290 286 290 286 308 297 318 321 330 347 342 316 311 308 307 328 325
230 236 243 257 263 312 298 347 334 320 428 397 372 351 334 320 308 292 282 279 280 292 320 322 316 302 307 297 305 296 296 289 283 290 283 288 284 287 288 295 287 287 296 298 296 315 309 325 333 343 332 342 347 349
232 231 239 242 256 263 303 157 348 332 321 447 405 376 355 342 322 311 295 285 276 270 275 296 314 307 308 294 300 294 289 293 292 291 287 286 289 284 290 285 293 289 288 289 286 297 306 312 312 316 310 312 301 309
235 237 229 248 240 255 266 297 296 346 330 314 437 432 396 366 344 329 316 302 288 277 271 276 273 263 310 297 294 297 292 294 285 285 284 280 282 285 282 293 291 284 286 280 295 287 291 292 299 313 311 303 311 311
213 239 236 239 244 246 263 297 294 290 341 332 303 402 430 419 380 351 337 323 312 296 282 273 270 275 270 276 307 306 303 300 295 293 292 289 292 293 284 274 293 287 286 287 292 293 287 291 299 295 301 303 297 297
232 238 237 238 248 239 251 265 318 292 286 343 323 297 438 429 424 406 363 346 335 323 310 287 282 270 280 273 267 273 303 300 298 300 303 301 300 299 300 309 310 309 309 306 314 312 311 313 311 301 302 304 306 307
233 231 240 236 251 248 253 261 264 313 282 298 340 325 299 436 429 418 416 394 357 345 332 324 306 288 280 267 278 271 268 261 259 298 305 306 302 303 312 308 317 316 322 326 328 333 331 328 331 331 313 290 281 274
233 226 237 241 245 257 253 254 264 292 309 271 306 338 324 298 405 413 419 409 406 391 359 344 334 324 311 292 268 270 279 276 269 262 260 259 289 300 297 309 303 300 299 298 295 289 286 283 277 272 267 265 262 257
225 232 235 239 242 254 261 257 256 278 309 289 289 318 338 323 313 420 425 420 407 398 393 391 360 343 334 329 315 273 270 270 275 281 271 263 260 259 260 269 271 276 274 265 258 256 254 251 248 247 247 248 250 252
228 228 232 238 241 253 260 262 260 263 298 301 272 305 323 336 318 363 396 420 405 396 394 387 379 384 374 348 346 340 281 281 274 271 283 284 271 266 260 259 256 253 253 252 252 252 253 253 252 253 252 251 249 247
229 231 230 237 242 247 256 262 264 258 294 306 283 281 310 338 332 310 379 418 428 426 419 398 390 382 375 377 379 370 358 341 301 285 271 271 275 288 284 272 262 261 260 258 258 258 257 259 258 257 256 257 256 255
222 233 227 231 241 244 265 263 264 259 276 300 297 272 300 313 342 328 376 435 437 491 493 498 437 403 391 381 374 371 374 377 373 351 305 277 271 270 272 298 307 312 287 274 274 273 273 274 276 280 286 292 296 298
222 230 217 235 241 228 266 269 267 260 269 298 297 269 289 310 332 343 320 385 442 497 478 464 476 485 436 398 380 373 368 366 369 372 381 364 286 277 272 265 270 278 288 293 301 310 313 317 303 293 290 291 297 301
229 226 226 241 214 245 265 274 265 262 266 279 299 283 276 312 316 347 338 381 424 447 475 456 443 442 439 466 444 400 385 378 376 375 372 374 378 325 280 279 268 266 266 270 273 267 270 271 272 274 273 279 278 277
232 232 230 242 190 260 269 275 266 268 270 277 301 285 276 304 318 337 343 336 391 434 487 460 439 441 466 441 432 443 468 409 385 378 375 370 363 368 372 303 286 280 269 267 266 266 263 264 264 264 262 264 267 265
233 228 242 244 248 258 273 274 268 270 280 279 290 288 271 305 314 328 345 333 376 421 473 474 447 427 463 459 446 425 425 437 431 421 403 389 382 373 365 367 373 300 288 277 269 267 266 264 259 260 261 260 258 261
235 243 252 262 262 267 272 273 268 269 278 281 281 292 269 303 311 322 343 338 357 385 431 477 456 432 418 461 450 447 442 437 447 438 419 414 409 406 399 381 366 366 354 307 289 277 272 264 265 265 264 260 259 257
244 265 267 271 268 268 273 270 265 268 278 279 279 290 271 289 307 313 336 342 335 384 396 493 465 440 421 410 440 448 444 447 433 418 420 415 409 406 406 408 409 394 363 368 325 310 294 280 275 271 262 263 263 262
286 270 274 273 270 269 275 268 260 267 274 278 281 286 269 283 309 314 334 343 331 385 384 448 474 454 426 411 407 409 434 436 429 426 425 424 420 419 411 414 414 418 421 420 362 369 337 312 301 286 278 273 270 263

GFSWCAN_2pvu_pres_198.txt.gz
Presure
349 340 331 322 309 306 434 451 434 436 417 411 416 402 409 405 401 394 407 401 397 388 382 388 383 393 372 360 350 355 362 363 368 365 367 369 372 357 360 353 346 360 373 379 353 319 291 292 301 286 285 293 299 310
363 346 333 321 307 308 401 422 440 417 415 422 417 389 391 388 384 391 391 376 380 372 368 400 373 384 356 356 326 334 344 339 345 352 346 345 339 338 333 329 334 341 358 358 367 347 353 335 319 285 275 267 273 298
372 358 342 330 311 308 369 395 426 415 402 396 389 416 388 370 366 361 352 348 367 377 376 376 375 371 361 340 343 333 347 344 346 340 333 331 333 341 332 334 333 333 333 336 344 343 342 341 333 308 288 279 276 267
371 370 356 343 327 315 303 345 371 371 412 410 407 413 398 367 352 349 349 359 369 352 345 339 345 338 343 345 342 338 331 326 325 325 319 313 315 316 316 313 310 310 312 314 317 323 326 236 220 315 313 305 297 275
343 369 367 355 339 326 311 305 335 355 353 364 367 384 386 385 374 357 337 353 337 325 313 332 320 321 315 317 315 312 310 309 307 306 307 309 309 308 304 304 302 302 308 309 305 303 304 299 302 265 306 303 299 299
357 343 382 367 354 338 324 310 301 297 346 339 347 350 335 341 340 347 325 325 321 321 328 318 317 310 311 305 304 305 304 305 305 304 305 310 311 307 306 310 309 315 319 319 312 300 295 289 287 294 296 296 293 295
361 358 344 330 367 354 338 322 309 296 291 351 341 333 328 326 321 324 327 326 320 308 310 309 309 306 307 309 310 310 312 315 315 318 324 326 322 350 335 334 334 338 335 337 346 370 348 306 293 294 294 294 293 294
280 340 359 344 333 364 356 340 324 311 298 291 320 347 340 333 327 323 317 315 317 313 310 309 309 314 311 309 312 319 316 321 323 325 327 327 314 311 311 312 317 324 330 341 344 345 347 392 318 306 301 298 294 291
201 235 322 327 346 330 381 364 344 326 312 300 292 283 303 353 343 337 327 321 312 305 304 305 306 309 317 315 317 319 330 340 362 355 348 328 316 314 324 322 323 317 326 322 331 336 348 360 372 319 313 305 298 295
246 186 269 313 326 349 330 382 372 353 331 315 301 286 289 284 390 380 361 349 334 324 315 312 309 307 306 314 319 375 350 368 396 393 336 317 317 317 313 312 315 312 315 321 327 331 335 344 351 360 316 311 303 295
251 242 254 267 313 331 345 329 382 379 367 343 323 310 296 285 283 378 385 412 365 347 333 319 314 313 318 346 334 326 322 319 315 313 309 306 305 301 300 302 306 316 324 333 342 346 350 357 354 330 362 319 307 295
234 250 246 254 267 306 323 346 332 390 384 368 352 329 317 303 282 284 386 420 389 357 340 330 327 321 349 327 317 306 308 308 304 303 301 295 288 294 302 314 328 321 327 332 338 346 346 350 360 387 375 328 319 301
239 232 251 253 255 266 288 300 348 334 413 393 376 354 332 321 306 289 283 402 398 376 354 340 331 351 328 317 304 301 294 299 299 296 295 293 290 284 291 318 297 299 318 320 336 349 335 332 423 426 405 406 345 312
234 238 233 248 262 255 265 288 298 348 330 411 403 370 353 335 323 312 295 282 340 389 387 352 355 337 321 301 310 295 301 296 293 287 289 288 275 284 282 291 302 298 302 313 323 338 341 321 380 431 413 377 420 381
219 232 239 237 249 266 256 265 292 298 347 321 302 407 368 350 342 322 313 297 283 279 299 369 340 336 314 302 304 294 286 297 289 293 294 292 284 284 287 290 288 299 293 299 312 317 324 328 310 333 374 430 415 357
223 211 230 238 236 251 267 258 265 312 299 344 326 340 407 375 354 342 325 315 304 287 278 306 328 333 315 309 307 302 301 291 291 290 281 285 290 284 287 284 295 284 286 292 288 308 305 316 336 302 306 311 345 347
213 223 203 229 237 235 250 268 263 264 316 297 338 332 305 427 393 359 345 330 318 308 292 276 274 272 302 307 304 306 297 298 292 293 286 287 289 286 287 287 285 288 288 288 289 291 298 307 304 312 321 304 297 315
213 213 225 220 219 239 228 255 270 267 265 309 289 332 333 317 436 408 368 351 336 320 314 297 281 271 271 286 304 303 306 302 295 294 289 285 287 286 290 293 284 299 285 282 281 292 289 288 296 305 320 313 316 320
214 216 219 223 218 232 239 225 263 272 266 267 308 279 323 335 316 418 417 385 361 346 331 318 310 290 280 269 267 285 297 304 300 295 293 289 292 285 287 283 281 283 282 297 289 289 296 302 298 299 299 309 310 309
208 217 213 222 222 226 233 235 234 268 275 266 269 305 272 310 336 323 432 430 402 378 361 347 331 313 307 296 279 268 270 268 265 306 305 299 298 297 291 294 298 297 301 308 310 305 301 298 294 281 297 306 305 301
207 221 220 223 219 218 230 237 219 248 271 269 265 270 301 275 306 343 328 350 425 423 399 381 368 346 327 315 311 297 270 270 275 270 263 295 299 300 299 302 302 303 307 305 310 317 325 327 328 320 319 301 303 313
214 214 221 220 222 215 217 226 241 228 261 269 266 273 276 291 282 311 342 330 400 418 419 409 403 383 365 343 327 322 314 280 273 270 277 268 263 286 296 299 306 299 305 307 308 314 319 317 319 326 331 329 326 318
216 213 220 219 221 228 220 196 243 214 256 271 266 263 282 293 278 303 317 344 331 373 400 410 403 403 397 387 369 348 333 327 318 277 279 277 275 269 262 262 306 298 302 300 301 302 298 296 290 287 283 277 271 268
223 211 220 220 220 228 230 225 224 252 260 266 270 263 277 274 294 275 311 334 344 329 382 421 422 413 406 401 394 384 370 355 342 335 283 277 278 279 273 269 263 264 285 287 285 278 275 271 268 264 253 248 248 249
220 213 219 227 219 227 228 231 243 254 265 263 269 262 269 280 280 276 285 317 347 340 390 434 442 447 437 424 407 389 382 377 375 366 354 342 285 288 273 282 269 268 264 262 260 259 259 257 256 257 256 255 255 253
217 225 218 229 225 226 230 238 248 255 265 264 266 266 265 276 275 290 273 308 324 352 341 397 439 501 497 481 495 421 392 381 376 375 373 374 370 351 292 276 274 281 275 269 263 262 262 262 261 261 260 259 256 257
225 219 220 228 224 231 237 248 247 269 268 267 266 268 263 274 277 283 277 287 319 351 345 396 436 494 478 465 457 496 446 404 384 374 370 368 370 374 379 359 283 273 282 289 283 271 267 266 268 272 272 270 267 267
230 217 229 220 231 233 240 255 246 264 271 269 268 271 261 272 275 282 289 280 308 339 350 344 400 495 479 458 442 435 450 450 424 396 383 379 369 367 368 371 373 345 278 276 266 306 305 307 287 286 289 301 329 324
227 229 230 231 230 237 250 258 267 275 271 269 267 271 263 268 271 283 289 277 292 321 350 342 397 490 483 460 441 428 476 441 428 460 446 408 392 383 381 376 376 376 370 284 282 273 265 277 287 293 300 296 291 288
231 230 230 228 238 249 262 259 275 271 275 272 270 273 263 263 271 280 288 283 287 312 342 350 363 435 491 466 442 427 431 459 462 438 419 426 433 433 418 400 385 384 387 378 322 292 281 275 268 273 278 271 271 267
234 231 231 239 256 257 263 267 279 276 281 274 270 274 265 269 273 279 285 296 291 311 332 347 338 399 499 472 448 428 415 438 480 451 439 430 420 415 408 407 407 409 409 410 398 362 318 295 275 274 273 267 272 264
244 250 246 258 262 266 273 278 271 280 279 273 269 271 264 269 268 276 281 289 307 309 328 340 343 393 449 483 456 432 416 411 409 434 454 446 449 411 411 419 415 410 407 406 408 413 410 360 309 293 277 273 271 268
265 258 264 267 274 278 277 271 280 280 285 272 274 272 264 266 271 273 277 287 307 308 330 336 342 336 396 494 463 426 415 407 403 405 411 435 434 433 423 422 421 413 411 411 411 413 416 422 423 366 317 295 280 277

GFSWCAN_2pvu_pres_201.txt.gz
Presure
395 384 374 361 348 329 322 312 460 428 412 422 404 398 404 428 426 415 415 419 412 406 393 402 394 347 355 298 292 289 289 287 288 287 291 292 292 291 319 351 355 330 322 320 330 301 325 289 283 283 277 274 269 289
363 349 380 372 358 341 324 311 426 425 413 402 431 393 393 387 387 386 376 376 387 392 373 383 379 378 370 364 341 343 351 334 345 340 348 358 366 352 337 340 347 340 360 347 358 370 364 380 355 345 343 351 291 273
369 355 341 342 368 355 336 319 298 385 412 417 417 397 394 381 379 387 378 368 370 379 371 355 355 369 371 353 338 340 343 323 333 341 324 334 344 339 338 344 341 346 347 343 346 333 337 350 351 349 333 347 357 349
308 357 355 342 381 366 353 335 317 298 373 365 417 390 369 351 362 358 375 379 352 349 349 357 381 378 361 349 342 329 329 332 333 332 350 349 338 334 328 325 318 311 319 322 319 319 326 339 359 335 234 341 334 328
268 294 327 356 342 370 363 349 333 318 303 353 354 364 385 358 361 350 349 337 325 322 318 326 336 335 335 337 343 337 336 338 329 318 315 316 315 314 310 307 306 305 314 316 313 309 310 310 316 332 332 328 319 312
259 267 291 319 354 339 375 363 347 331 316 301 287 341 341 349 338 340 335 333 324 333 318 319 325 313 315 314 313 311 308 308 307 305 308 309 311 308 304 302 302 309 306 307 309 311 310 310 309 315 321 324 305 301
252 262 241 259 319 350 340 369 366 346 334 320 302 288 329 337 333 331 324 319 328 325 324 328 317 316 308 303 307 308 307 306 307 308 309 312 312 313 318 324 332 331 331 332 338 346 348 346 308 299 306 315 301 294
240 249 272 134 286 299 347 342 371 370 351 336 323 308 292 283 353 342 332 322 313 318 313 309 310 311 308 307 309 311 314 312 317 316 319 316 313 319 321 318 312 308 312 317 324 338 342 334 354 309 298 299 296 292
234 237 243 267 268 284 305 350 332 378 373 356 338 324 312 295 283 305 359 349 332 319 310 310 309 308 311 319 317 316 317 323 337 345 342 338 330 323 311 311 316 317 324 323 327 337 336 339 330 348 312 296 293 290
223 232 235 241 263 268 275 313 348 328 396 382 364 341 326 314 297 289 290 389 379 351 324 319 317 311 319 309 316 315 351 347 386 404 396 419 324 311 312 311 309 310 313 316 323 332 341 337 343 342 381 310 296 287
212 224 232 233 238 256 271 273 312 317 347 406 388 370 353 338 320 302 289 319 435 401 356 329 323 319 313 313 332 329 327 319 319 319 317 313 303 301 304 307 309 321 326 329 333 344 359 362 357 350 366 356 310 298
226 219 224 227 233 231 252 275 270 311 316 357 399 394 371 354 341 328 308 294 337 387 368 353 341 334 332 325 331 322 314 308 311 310 304 302 299 294 293 319 306 307 315 314 326 351 344 340 344 356 383 345 320 309
208 226 220 221 227 234 235 247 276 269 312 293 345 411 393 358 357 345 331 314 298 280 376 354 341 334 327 336 321 312 310 301 305 294 297 296 292 283 290 304 308 297 308 312 319 326 331 327 318 329 380 420 345 315
215 219 223 220 220 226 233 239 247 275 266 294 290 343 420 391 372 366 347 333 316 303 287 367 355 343 353 327 311 309 304 296 298 297 298 299 291 282 285 286 288 302 296 298 306 312 330 316 319 343 415 436 369 334
217 215 223 224 212 221 222 235 243 254 273 267 289 287 345 347 398 378 363 347 334 320 308 292 349 363 338 317 318 306 293 304 299 298 297 292 296 284 289 286 287 287 290 287 297 302 306 327 308 314 363 428 432 335
223 216 215 221 223 211 224 221 235 249 262 270 269 284 285 313 346 401 383 365 352 339 324 311 297 320 301 317 316 308 300 295 305 300 297 304 292 290 292 291 291 290 291 285 289 293 298 305 310 316 310 396 420 394
223 220 213 215 223 216 218 226 223 243 255 264 270 266 261 285 292 342 334 372 372 356 343 331 315 301 298 285 283 310 305 308 302 301 301 300 295 294 292 292 289 290 288 289 289 293 290 298 306 302 313 297 333 378
217 213 217 211 217 221 210 228 221 234 247 266 263 270 269 278 284 293 342 338 390 379 361 345 335 323 306 307 296 284 275 270 316 305 309 301 305 300 294 291 290 288 292 285 297 285 285 292 291 297 305 305 324 308
215 215 207 220 217 219 223 218 225 222 238 255 269 265 270 270 278 282 292 333 336 327 393 373 362 344 338 323 308 301 297 289 276 269 280 302 302 295 288 295 290 286 287 287 288 286 301 297 291 297 301 297 312 320
216 215 212 213 211 221 215 223 233 232 240 253 260 269 266 268 269 277 280 288 315 339 326 366 397 369 369 344 335 322 312 308 301 278 279 270 269 306 303 300 300 295 289 294 297 298 309 312 310 294 295 304 301 307
217 213 215 202 219 220 214 221 232 228 195 242 255 265 269 270 265 270 281 277 288 312 338 330 370 423 396 379 364 349 332 326 322 318 282 280 277 272 265 301 303 305 303 307 298 304 302 307 311 317 329 335 289 291
203 215 214 218 219 212 226 225 219 233 232 240 257 273 267 270 272 263 271 283 276 291 316 339 329 368 390 403 416 401 374 354 344 337 331 295 283 282 275 269 287 298 301 298 302 298 300 305 309 312 318 325 327 317
206 210 215 216 217 225 220 218 217 231 234 238 251 252 266 268 270 270 265 271 289 279 297 328 340 332 390 386 410 398 402 398 388 370 354 343 333 306 285 285 276 270 284 296 299 297 303 303 306 310 312 319 323 327
201 213 218 211 219 223 208 231 225 233 226 240 242 254 267 271 275 274 265 267 280 288 284 306 339 343 361 392 430 423 415 406 397 390 387 372 356 347 335 290 286 280 272 267 296 298 301 302 303 302 300 299 299 298
206 219 216 219 221 226 226 234 232 232 226 239 240 260 267 273 274 274 274 267 272 284 290 298 313 347 336 394 436 456 493 480 425 407 389 381 376 372 365 358 328 288 281 268 272 268 297 298 293 288 284 281 277 265
216 219 218 225 223 224 231 236 234 233 238 240 248 263 268 266 274 273 276 266 270 278 289 311 310 336 351 372 446 506 491 477 473 455 409 388 376 372 375 375 367 361 310 285 276 270 271 274 266 263 263 261 260 260
220 225 220 227 228 234 236 246 252 250 241 250 256 268 271 267 272 272 276 269 272 275 284 303 311 332 349 348 447 504 482 462 451 467 464 418 391 379 373 371 372 374 370 368 287 273 279 272 270 271 264 264 264 262
221 228 226 231 232 243 241 248 253 257 261 257 260 270 270 270 273 280 276 268 272 275 276 286 315 317 345 351 429 505 480 458 442 433 460 460 425 400 381 373 367 368 367 369 373 342 283 273 279 278 271 272 272 268
229 233 234 234 241 237 231 248 247 261 267 263 273 274 270 271 277 281 274 272 267 273 274 282 301 304 337 346 391 501 477 456 438 425 426 420 433 428 419 401 390 383 376 369 368 367 369 295 283 276 282 282 278 276
234 236 234 240 232 233 242 253 241 263 270 266 278 272 271 272 278 277 274 277 264 272 279 279 286 300 325 341 342 505 478 454 435 425 432 455 450 430 416 419 418 419 408 396 388 381 375 373 367 295 288 277 276 289
239 238 240 239 237 246 257 252 252 273 272 280 275 276 269 274 287 282 275 277 267 273 277 276 284 298 309 334 337 419 484 451 434 423 417 430 468 456 451 428 411 407 437 430 422 419 414 414 413 399 378 301 290 278
274 264 259 259 258 262 259 259 277 280 274 273 280 275 273 281 288 281 275 277 271 271 276 273 282 319 285 319 336 335 438 454 434 422 416 411 411 437 456 441 428 422 415 408 404 401 396 399 405 411 415 375 366 303
269 267 266 262 259 264 266 285 279 270 274 276 279 275 277 280 285 276 273 274 268 271 278 275 278 293 283 314 329 331 406 454 437 423 411 406 405 406 408 416 427 431 436 431 418 405 406 411 410 407 405 407 408 361

GFSWCAN_2pvu_pres_207.txt.gz
Presure
215 229 279 289 301 358 361 393 384 364 340 325 329 397 397 389 407 415 406 397 400 416 410 408 411 362 299 301 304 337 339 332 323 319 314 311 309 311 314 316 314 315 313 312 312 313 316 313 316 321 323 330 337 340
221 207 228 280 288 300 367 357 388 375 360 339 320 315 383 372 384 385 385 380 373 397 400 402 399 397 399 343 287 290 291 297 311 329 331 328 331 339 340 337 336 331 313 311 308 307 306 306 306 305 305 303 301 303
199 225 228 226 281 286 298 358 354 388 371 356 340 320 304 381 373 373 378 384 389 387 377 374 375 377 383 395 361 350 346 301 291 287 283 279 281 279 277 278 279 294 297 366 369 365 360 363 369 371 372 375 374 377
210 224 236 244 244 281 285 297 141 356 384 367 352 344 324 304 372 353 357 359 360 368 370 364 358 361 369 352 347 350 338 347 339 337 333 337 338 344 345 339 330 335 345 346 346 351 352 347 341 337 340 347 347 350
197 228 224 233 227 248 281 284 296 314 396 379 361 348 344 326 310 293 352 337 334 339 347 354 355 358 355 347 341 338 350 341 335 336 334 330 338 343 336 327 329 333 342 342 333 331 330 325 327 334 337 335 337 341
203 228 225 225 229 229 264 279 285 294 297 398 377 359 353 341 326 315 294 312 341 337 341 330 332 341 351 356 339 350 349 348 344 337 328 328 335 342 347 336 321 318 320 320 312 312 314 316 317 319 324 322 327 322
207 216 228 223 214 226 240 257 273 283 292 295 392 384 365 352 339 327 315 299 292 345 333 327 321 328 318 328 326 323 323 322 322 319 316 314 313 311 310 309 310 309 309 310 312 323 332 342 342 347 349 354 338 321
210 200 224 226 221 213 228 236 250 268 282 289 294 394 382 370 359 341 332 319 305 321 348 334 325 322 323 313 307 309 308 305 306 307 311 313 315 314 305 307 305 311 317 321 323 322 321 324 330 333 342 340 362 320
213 198 225 223 218 219 212 221 233 245 259 280 285 294 369 395 381 363 349 335 316 302 379 350 334 327 318 315 313 311 307 314 318 316 317 320 336 331 319 320 317 314 318 316 319 323 329 335 340 347 340 336 358 317
209 215 197 221 220 216 216 230 222 238 243 253 269 285 289 295 396 395 365 352 340 320 305 389 352 334 330 327 321 314 310 309 315 344 336 400 395 416 346 312 308 315 310 311 315 324 341 340 344 359 371 354 350 323
207 206 197 199 218 219 208 209 228 221 242 242 251 265 286 285 292 385 396 380 360 348 329 419 384 350 343 333 319 318 317 332 331 318 314 335 356 359 344 322 312 308 310 306 315 318 316 329 333 343 350 382 351 319
205 206 201 197 222 216 218 210 207 232 228 245 248 253 265 286 283 289 354 385 376 363 349 331 392 387 363 345 336 315 323 329 318 317 308 307 318 316 314 307 309 299 296 300 304 311 313 318 324 324 336 355 379 314
204 206 214 220 204 215 215 220 218 211 236 238 248 257 255 268 283 283 285 304 392 381 366 351 341 320 382 372 358 349 343 327 309 309 304 304 307 291 287 294 298 303 300 302 299 306 303 308 315 318 324 329 377 315
203 202 202 195 205 213 209 214 222 222 206 239 240 250 259 258 269 280 284 280 293 345 379 361 362 396 375 366 345 351 344 321 314 312 309 299 299 292 293 309 297 292 295 288 292 289 299 303 317 316 313 326 408 410
203 201 195 202 195 213 221 205 216 210 225 223 242 242 246 263 257 271 277 284 279 291 334 339 373 372 372 346 368 358 340 319 316 318 309 308 305 302 306 303 304 294 296 293 301 296 289 299 308 312 321 309 363 429
207 200 195 200 205 197 209 220 205 214 223 230 228 245 238 248 264 260 274 277 284 274 285 306 331 367 369 373 378 359 338 333 322 325 302 298 310 305 294 307 298 307 295 296 299 296 291 294 296 297 312 315 338 364
208 199 196 201 203 208 205 209 219 208 221 224 227 229 245 233 243 263 268 275 274 284 273 279 309 305 325 333 389 338 347 332 328 317 326 316 298 277 295 301 304 306 300 298 296 297 297 291 296 300 297 311 304 335
205 203 200 197 202 201 202 207 219 213 215 219 227 227 228 245 231 241 259 272 275 278 284 273 275 278 306 316 327 325 323 333 340 332 338 323 318 312 307 283 268 295 296 299 294 292 293 292 288 287 293 303 309 302
202 201 204 198 205 198 193 210 215 218 217 217 225 230 221 233 244 234 238 258 272 273 278 283 270 273 273 290 301 323 328 323 347 332 342 340 327 330 321 321 300 284 273 302 302 291 292 290 288 290 294 300 317 308
206 203 209 195 214 199 193 205 210 216 218 219 218 227 229 219 238 243 233 246 267 272 275 279 279 275 273 270 281 294 311 325 321 331 359 351 342 339 339 335 333 320 293 295 272 306 296 294 293 296 289 300 310 303
209 210 207 209 212 201 196 208 210 216 220 218 214 224 231 222 227 246 241 238 257 274 275 272 284 278 274 273 271 281 296 311 325 320 380 442 360 365 354 350 350 350 348 307 297 275 271 309 302 302 299 301 305 310
205 209 212 209 217 217 198 207 212 219 220 220 217 224 228 229 230 241 245 242 258 275 272 279 271 282 278 275 273 273 278 307 306 324 327 388 414 359 365 373 377 371 353 363 354 308 294 273 307 304 305 303 301 303
206 205 208 212 215 218 204 210 208 220 216 221 221 223 212 230 231 242 244 247 259 260 276 274 275 286 279 280 275 273 273 287 321 310 329 400 412 407 400 391 384 381 367 364 382 381 346 301 278 286 301 307 298 299
203 203 204 208 210 201 209 208 214 219 215 217 220 222 214 231 233 240 242 265 261 260 278 273 277 276 283 278 282 278 272 277 312 330 324 338 438 440 435 424 410 395 388 386 381 373 376 379 309 278 287 303 299 299
206 208 207 210 205 204 209 213 217 217 208 216 220 229 213 234 235 243 242 269 264 262 278 274 275 274 286 281 278 281 272 274 294 326 335 334 531 518 504 495 490 443 410 395 388 380 375 381 383 363 280 279 293 299
207 208 209 205 209 208 216 213 214 218 210 225 220 227 228 232 237 247 272 269 267 264 277 276 274 273 285 282 275 279 282 273 285 322 346 337 503 484 468 464 479 486 463 425 404 387 377 373 373 377 378 282 281 284
246 216 210 213 211 210 213 212 219 219 218 224 230 229 233 237 247 273 272 272 269 266 279 278 274 275 281 284 278 278 281 278 277 314 334 346 477 466 456 451 448 474 456 432 415 392 380 372 368 367 369 370 285 286
254 252 218 220 218 219 216 216 218 218 228 229 231 234 252 256 271 272 273 275 269 268 279 276 275 276 278 286 279 282 278 285 273 292 329 344 349 462 445 433 425 421 459 434 416 404 386 375 369 366 363 367 367 290
261 264 266 271 270 267 263 263 262 263 255 264 263 263 272 274 274 274 268 281 263 276 283 273 277 276 281 285 282 280 279 287 272 289 328 338 344 456 445 432 424 425 413 455 431 410 398 382 373 366 362 362 363 367
257 263 260 280 278 271 266 268 269 270 270 269 270 278 278 280 281 271 279 265 273 283 280 273 279 276 282 284 283 278 281 287 278 283 315 328 336 362 450 430 423 419 418 453 445 431 416 400 387 378 372 367 365 363
264 277 280 277 272 269 273 271 268 266 261 268 271 288 285 285 281 267 269 268 285 287 273 275 278 276 282 284 284 278 284 288 283 283 298 326 332 342 455 440 425 413 408 413 453 445 434 418 408 403 391 384 376 373
288 280 276 271 267 272 278 278 275 274 268 265 285 283 276 270 267 272 270 285 287 286 269 277 280 275 282 284 283 278 280 286 287 280 290 323 328 333 355 444 425 413 406 401 396 397 407 437 432 425 417 408 401 396
279 278 279 279 275 264 261 287 283 277 278 279 280 278 276 273 273 272 281 288 285 268 272 281 281 276 279 283 280 276 282 286 288 283 286 321 325 331 336 444 432 413 404 401 395 395 399 399 398 400 433 426 412 407